Regional Weather Roundup
Issued by NWS Northern Indiana

Home | Current Version | Previous Version | Graphics & Text | Print | Product List | Glossary On
Versions: 1 2 3 4 5 6 7 8 9 10 11 12 13 14 15 16 17 18 19 20 21 22 23 24 25 26 27 28 29 30 31 32 33 34 35 36 37 38 39 40 41 42 43 44 45 46 47 48 49 50
000
ASUS43 KIWX 291310
RWRIWX

KIWX WEATHER ROUNDUP
NATIONAL WEATHER SERVICE NORTHERN INDIANA
800 AM EST THU JAN 29 2015

NOTE: "FAIR" INDICATES FEW OR NO CLOUDS BELOW 12,000 FEET WITH NO
SIGNIFICANT WEATHER AND/OR OBSTRUCTIONS TO VISIBILITY.

* THESE STATIONS ARE NOT UNDER NWS QUALITY CONTROL. THEY ALSO MAY NOT
  REPORT WEATHER SUCH AS PRECIPITATION OR FOG.

INZ001>027-291400-
NORTHERN INDIANA

CITY           SKY/WX    TMP DP  RH WIND       PRES   REMARKS
GARY*          CLOUDY    37  27  65 W6        29.72R
VALPARAISO     CLOUDY    33  26  75 CALM      29.71R
MICHIGAN CITY* CLOUDY    36  23  60 S5        29.71S
LAPORTE*       CLOUDY    36  28  73 SW3       29.71S
KNOX*          MOCLDY    34  16  48 S9        29.70S WCI  27
SOUTH BEND     CLOUDY    37  26  64 SW5       29.72R
ELKHART*       CLOUDY    36  23  60 S3        29.73R
GOSHEN         CLOUDY    36  27  69 S10       29.71S
MONTICELLO*    CLEAR     38  31  78 SW8       29.71S
LOGANSPORT*    PTCLDY    34  32  93 S10       29.73S WCI  26
ROCHESTER*     PTCLDY    37  30  75 S9        29.72S
WARSAW*        PTCLDY    34  27  75 S5        29.72S WCI  30
ANGOLA*        CLOUDY    30  25  80 S8        29.73S WCI  23
FORT WAYNE     MOCLDY    36  28  73 S12       29.75F
HUNTINGTON*    MOCLDY    38  25  61 S9        29.74S
PERU/GRISSOM   MOCLDY    38  30  73 S16       29.72S
MARION*        MOCLDY    36  29  74 S16G23    29.76R

$$
INZ028>050-291400-
CENTRAL INDIANA

CITY           SKY/WX    TMP DP  RH WIND       PRES   REMARKS
LAFAYETTE      PTCLDY    40  31  70 S7        29.72F
KOKOMO*        MOCLDY    37  28  70 S14G22    29.74S
MUNCIE*        MOCLDY    39  30  70 S16G25    29.76F
INDIANAPOLIS   MOCLDY    38  30  73 S12       29.77F

$$
MIZ043>046-050>051-056>058-064>065-071>073-077>080-291400-
SOUTHWEST LOWER MICHIGAN

CITY           SKY/WX    TMP DP  RH WIND       PRES   REMARKS
BATTLE CREEK   CLOUDY    33  24  69 S7        29.73S WCI  27
BENTON HARBOR  CLOUDY    33  26  75 S3        29.72R
COLDWATER*     CLOUDY    32  25  75 SE6       29.73S WCI  26
HILLSDALE*     CLOUDY    29  26  86 S7        29.74S WCI  22
HOLLAND        CLOUDY    33  26  75 CALM      29.73S
GRAND RAPIDS   CLOUDY    30  25  81 E7        29.73F WCI  23
KALAMAZOO      CLOUDY    32  24  72 S6        29.73S WCI  26
STURGIS*       CLOUDY    34  27  75 CALM      29.72S
THREE RIVERS*  CLOUDY    33  25  73 S5        29.73R WCI  28

$$
OHZ001>008-015>018-024>025-291400-
NORTHWEST OHIO

CITY           SKY/WX    TMP DP  RH WIND       PRES   REMARKS
WAUSEON*       FAIR      30  25  80 S9        29.77F WCI  22
DEFIANCE       CLOUDY    36  26  67 S12G23    29.77F
FINDLAY        CLOUDY    33  25  72 S16       29.79F WCI  23
TOLEDO EXPRESS CLOUDY    31  23  72 S7        29.78F WCI  24
TOLEDO METCALF CLOUDY    33  23  66 S13       29.81F WCI  24
LIMA           CLOUDY    37  28  70 S17       29.79F

$$
AND FOR LAKE MICHIGAN COASTAL AND OPEN LAKE BUOY OBSERVATIONS

STATION/POSITION TEMP    WIND        PRES    VSBY  WAVE
                 AIR SEA DIR/SP/G                  HT/PER
                 (F)     (DEG/KT/KT) (MB)    (MI)  (FT/S)
CALUMET HARBOR    37     260/  5/  6   N/A
MICHIGAN CITY     37     150/ 12/ 15   N/A
SAINT JOSEPH      36     130/  2/  6 1006.4S

$$
&&


USA.gov is the U.S. government's official web portal to all federal, state and local government web resources and services.